Weather History for El Centro, CA

Change the Weather History Date:

Saturday, June 7, 2014

  Actual Average Record
Temperature  
Mean Temperature 90 °F -  
Max Temperature 106 °F 95 °F 111 °F (2013)
Min Temperature 75 °F 68 °F 57 °F (2007)
Cooling Degree Days 26    
Growing Degree Days 40 (Base 50)    
Moisture  
Dew Point 28 °F    
Average Humidity 11    
Maximum Humidity 18    
Minimum Humidity 5    
Precipitation  
Precipitation 0.00 in - - ()
Sea Level Pressure  
Sea Level Pressure 29.65 in    
Wind  
Wind Speed 11 mph (SW)    
Max Wind Speed 21 mph    
Max Gust Speed -    
Visibility 10 miles    
Events      
Averages and records for this station are not official NWS values.
T = Trace of Precipitation, MM = Missing Value Source: NWS Daily Summary

Daily Weather History Graph

Daily Weather History Graph

Search for Another Location

Airport:

Trip Planner

Search our weather history database for the weather conditions in past years. The results will help you decide how hot, cold, wet, or windy it might be!

Date:

Astronomy

Jun. 07, 2014 Rise Set
Actual Time 5:34 AM PDT 7:49 PM PDT
Civil Twilight 5:05 AM PDT 8:17 PM PDT
Nautical Twilight 4:31 AM PDT 8:52 PM PDT
Astronomical Twilight 3:53 AM PDT 9:30 PM PDT
Moon 2:27 PM PDT (6/7) 1:40 AM PDT (6/7)
Length of Visible Light 15h 11m
Length of Day
14h 14m
Waxing Gibbous, 69% of the Moon is Illuminated
Jun 7
Waxing Gibbous
Jun 12
Full
Jun 19
Last Quarter
Jun 27
New
Jul 5
First Quarter

Hourly Weather History & Observations

Time (PDT) Temp. Dew Point Humidity Pressure Visibility Wind Dir Wind Speed Gust Speed Precip Events Conditions
12:56 AM 84.0 °F 30.0 °F 14% 29.66 in 10.0 mi WSW 20.7 mph - N/A   Clear
1:56 AM 80.1 °F 28.0 °F 15% 29.65 in 10.0 mi WSW 10.4 mph - N/A   Clear
2:56 AM 79.0 °F 28.0 °F 15% 29.65 in 10.0 mi WSW 10.4 mph - N/A   Clear
3:56 AM 75.9 °F 28.9 °F 18% 29.65 in 10.0 mi SW 9.2 mph - N/A   Clear
4:56 AM 75.9 °F 28.9 °F 18% 29.65 in 10.0 mi WSW 11.5 mph - N/A   Clear
5:56 AM 75.9 °F 28.0 °F 17% 29.67 in 10.0 mi SW 13.8 mph - N/A   Clear
6:56 AM 82.0 °F 28.0 °F 14% 29.69 in 10.0 mi SW 10.4 mph - N/A   Clear
7:56 AM 87.1 °F 30.0 °F 13% 29.70 in 10.0 mi WSW 10.4 mph - N/A   Clear
8:56 AM 93.0 °F 23.0 °F 8% 29.70 in 10.0 mi WSW 12.7 mph - N/A   Clear
9:56 AM 96.1 °F 19.0 °F 6% 29.69 in 10.0 mi West 8.1 mph - N/A   Clear
10:56 AM 96.1 °F 32.0 °F 10% 29.69 in 10.0 mi ESE 8.1 mph - N/A   Clear
11:56 AM 99.0 °F 25.0 °F 7% 29.68 in 10.0 mi Calm Calm - N/A   Clear
12:56 PM 100.9 °F 25.0 °F 7% 29.67 in 10.0 mi Variable 4.6 mph - N/A   Clear
1:56 PM 102.9 °F 25.0 °F 6% 29.65 in 10.0 mi South 6.9 mph - N/A   Clear
2:56 PM 104.0 °F 21.0 °F 5% 29.63 in 10.0 mi Variable 3.5 mph - N/A   Clear
3:56 PM 105.1 °F 19.0 °F 5% 29.61 in 10.0 mi South 8.1 mph - N/A   Clear
4:56 PM 106.0 °F 21.0 °F 5% 29.59 in 10.0 mi NNW 5.8 mph - N/A   Clear
5:56 PM 104.0 °F 21.9 °F 5% 29.58 in 10.0 mi Calm Calm - N/A   Clear
6:56 PM 100.0 °F 39.9 °F 13% 29.60 in 10.0 mi WSW 15.0 mph - N/A   Clear
7:56 PM 93.9 °F 41.0 °F 16% 29.61 in 10.0 mi WSW 11.5 mph - N/A   Clear
8:56 PM 93.0 °F 39.0 °F 15% 29.62 in - North - - N/A   Unknown